Track COSMOS 2441 now! 10-day predictions COSMOS 2441 is classified as:
1 33272U 08037A 25163.81757009 .00000143 00000-0 45531-4 0 9999 2 33272 98.2847 109.0351 0017042 39.5208 320.7227 14.52969837894409